Year,Month,Day,Hour,Minute,Value (Times are PST for temperature in C)
2010,09,22,00,00,7.40
2010,09,22,00,01,7.40
2010,09,22,00,02,7.40
2010,09,22,00,03,7.40
2010,09,22,00,04,7.40
2010,09,22,00,05,7.40
2010,09,22,00,06,7.30
2010,09,22,00,07,7.30
2010,09,22,00,08,7.40
2010,09,22,00,09,7.40
2010,09,22,00,10,7.30
2010,09,22,00,11,7.30
2010,09,22,00,12,7.30
2010,09,22,00,13,7.30
2010,09,22,00,14,7.30
2010,09,22,00,15,7.30
2010,09,22,00,16,7.30
2010,09,22,00,17,7.30
2010,09,22,00,18,7.30
2010,09,22,00,19,7.30
2010,09,22,00,20,7.30
2010,09,22,00,21,7.30
2010,09,22,00,22,7.30
2010,09,22,00,23,7.30
2010,09,22,00,24,7.30
2010,09,22,00,25,7.30
2010,09,22,00,26,7.30
2010,09,22,00,27,7.30
2010,09,22,00,28,7.30
2010,09,22,00,29,7.30
2010,09,22,00,30,7.30
2010,09,22,00,31,7.30
2010,09,22,00,32,7.20
2010,09,22,00,33,7.20
2010,09,22,00,34,7.20
2010,09,22,00,35,7.20
2010,09,22,00,36,7.20
2010,09,22,00,37,7.20
2010,09,22,00,38,7.20
2010,09,22,00,39,7.20
2010,09,22,00,40,7.20
2010,09,22,00,41,7.20
2010,09,22,00,42,7.20
2010,09,22,00,43,7.20
2010,09,22,00,44,7.20
2010,09,22,00,45,7.20
2010,09,22,00,46,7.20
2010,09,22,00,47,7.30
2010,09,22,00,48,7.30
2010,09,22,00,49,7.30
2010,09,22,00,50,7.30
2010,09,22,00,51,7.30
2010,09,22,00,52,7.30
2010,09,22,00,53,7.40
2010,09,22,00,54,7.40
2010,09,22,00,55,7.40
2010,09,22,00,56,7.40
2010,09,22,00,57,7.40
2010,09,22,00,58,7.40
2010,09,22,00,59,7.40
2010,09,22,01,00,7.40
2010,09,22,01,01,7.40
2010,09,22,01,02,7.40
2010,09,22,01,03,7.40
2010,09,22,01,04,7.40
2010,09,22,01,05,7.40
2010,09,22,01,06,7.40
2010,09,22,01,07,7.40
2010,09,22,01,08,7.30
2010,09,22,01,09,7.40
2010,09,22,01,10,7.40
2010,09,22,01,11,7.40
2010,09,22,01,12,7.40
2010,09,22,01,13,7.30
2010,09,22,01,14,7.30
2010,09,22,01,15,7.30
2010,09,22,01,16,7.30
2010,09,22,01,17,7.30
2010,09,22,01,18,7.30
2010,09,22,01,19,7.20
2010,09,22,01,20,7.20
2010,09,22,01,21,7.30
2010,09,22,01,22,7.30
2010,09,22,01,23,7.30
2010,09,22,01,24,7.30
2010,09,22,01,25,7.30
2010,09,22,01,26,7.30
2010,09,22,01,27,7.30
2010,09,22,01,28,7.30
2010,09,22,01,29,7.20
2010,09,22,01,30,7.20
2010,09,22,01,31,7.20
2010,09,22,01,32,7.20
2010,09,22,01,33,7.20
2010,09,22,01,34,7.20
2010,09,22,01,35,7.30
2010,09,22,01,36,7.30
2010,09,22,01,37,7.30
2010,09,22,01,38,7.30
2010,09,22,01,39,7.30
2010,09,22,01,40,7.20
2010,09,22,01,41,7.20
2010,09,22,01,42,7.20
2010,09,22,01,43,7.20
2010,09,22,01,44,7.20
2010,09,22,01,45,7.20
2010,09,22,01,46,7.20
2010,09,22,01,47,7.20
2010,09,22,01,48,7.20
2010,09,22,01,49,7.20
2010,09,22,01,50,7.20
2010,09,22,01,51,7.20
2010,09,22,01,52,7.20
2010,09,22,01,53,7.20
2010,09,22,01,54,7.20
2010,09,22,01,55,7.20
2010,09,22,01,56,7.20
2010,09,22,01,57,7.20
2010,09,22,01,58,7.10
2010,09,22,01,59,7.10
2010,09,22,02,00,7.20
2010,09,22,02,01,7.20
2010,09,22,02,02,7.20
2010,09,22,02,03,7.20
2010,09,22,02,04,7.20
2010,09,22,02,05,7.20
2010,09,22,02,06,7.20
2010,09,22,02,07,7.20
2010,09,22,02,08,7.20
2010,09,22,02,09,7.10
2010,09,22,02,10,7.10
2010,09,22,02,11,7.10
2010,09,22,02,12,7.10
2010,09,22,02,13,7.10
2010,09,22,02,14,7.10
2010,09,22,02,15,7.10
2010,09,22,02,16,7.00
2010,09,22,02,17,7.00
2010,09,22,02,18,7.00
2010,09,22,02,19,7.00
2010,09,22,02,20,7.00
2010,09,22,02,21,6.90
2010,09,22,02,22,6.90
2010,09,22,02,23,6.90
2010,09,22,02,24,6.90
2010,09,22,02,25,6.90
2010,09,22,02,26,6.90
2010,09,22,02,27,6.80
2010,09,22,02,28,6.80
2010,09,22,02,29,6.80
2010,09,22,02,30,6.80
2010,09,22,02,31,6.80
2010,09,22,02,32,6.80
2010,09,22,02,33,6.80
2010,09,22,02,34,6.80
2010,09,22,02,35,6.80
2010,09,22,02,36,6.80
2010,09,22,02,37,6.80
2010,09,22,02,38,6.70
2010,09,22,02,39,6.70
2010,09,22,02,40,6.70
2010,09,22,02,41,6.70
2010,09,22,02,42,6.70
2010,09,22,02,43,6.70
2010,09,22,02,44,6.60
2010,09,22,02,45,6.60
2010,09,22,02,46,6.60
2010,09,22,02,47,6.50
2010,09,22,02,48,6.50
2010,09,22,02,49,6.50
2010,09,22,02,50,6.50
2010,09,22,02,51,6.40
2010,09,22,02,52,6.40
2010,09,22,02,53,6.40
2010,09,22,02,54,6.40
2010,09,22,02,55,6.40
2010,09,22,02,56,6.30
2010,09,22,02,57,6.30
2010,09,22,02,58,6.30
2010,09,22,02,59,6.30
2010,09,22,03,00,6.30
2010,09,22,03,01,6.30
2010,09,22,03,02,6.30
2010,09,22,03,03,6.30
2010,09,22,03,04,6.20
2010,09,22,03,05,6.20
2010,09,22,03,06,6.20
2010,09,22,03,07,6.20
2010,09,22,03,08,6.20
2010,09,22,03,09,6.20
2010,09,22,03,10,6.20
2010,09,22,03,11,6.20
2010,09,22,03,12,6.20
2010,09,22,03,13,6.20
2010,09,22,03,14,6.20
2010,09,22,03,15,6.20
2010,09,22,03,16,6.20
2010,09,22,03,17,6.20
2010,09,22,03,18,6.20
2010,09,22,03,19,6.20
2010,09,22,03,20,6.20
2010,09,22,03,21,6.20
2010,09,22,03,22,6.20
2010,09,22,03,23,6.20
2010,09,22,03,24,6.30
2010,09,22,03,25,6.30
2010,09,22,03,26,6.30
2010,09,22,03,27,6.30
2010,09,22,03,28,6.30
2010,09,22,03,29,6.30
2010,09,22,03,30,6.30
2010,09,22,03,31,6.30
2010,09,22,03,32,6.30
2010,09,22,03,33,6.20
2010,09,22,03,34,6.20
2010,09,22,03,35,6.20
2010,09,22,03,36,6.20
2010,09,22,03,37,6.20
2010,09,22,03,38,6.20
2010,09,22,03,39,6.20
2010,09,22,03,40,6.20
2010,09,22,03,41,6.20
2010,09,22,03,42,6.20
2010,09,22,03,43,6.20
2010,09,22,03,44,6.20
2010,09,22,03,45,6.20
2010,09,22,03,46,6.20
2010,09,22,03,47,6.20
2010,09,22,03,48,6.20
2010,09,22,03,49,6.20
2010,09,22,03,50,6.20
2010,09,22,03,51,6.20
2010,09,22,03,52,6.20
2010,09,22,03,53,6.20
2010,09,22,03,54,6.30
2010,09,22,03,55,6.30
2010,09,22,03,56,6.30
2010,09,22,03,57,6.30
2010,09,22,03,58,6.30
2010,09,22,03,59,6.30
2010,09,22,04,00,6.30
2010,09,22,04,01,6.30
2010,09,22,04,02,6.30
2010,09,22,04,03,6.30
2010,09,22,04,04,6.30
2010,09,22,04,05,6.30
2010,09,22,04,06,6.30
2010,09,22,04,07,6.30
2010,09,22,04,08,6.30
2010,09,22,04,09,6.30
2010,09,22,04,10,6.30
2010,09,22,04,11,6.30
2010,09,22,04,12,6.30
2010,09,22,04,13,6.30
2010,09,22,04,14,6.30
2010,09,22,04,15,6.30
2010,09,22,04,16,6.30
2010,09,22,04,17,6.30
2010,09,22,04,18,6.30
2010,09,22,04,19,6.30
2010,09,22,04,20,6.30
2010,09,22,04,21,6.30
2010,09,22,04,22,6.30
2010,09,22,04,23,6.30
2010,09,22,04,24,6.30
2010,09,22,04,25,6.30
2010,09,22,04,26,6.20
2010,09,22,04,27,6.20
2010,09,22,04,28,6.20
2010,09,22,04,29,6.20
2010,09,22,04,30,6.20
2010,09,22,04,31,6.10
2010,09,22,04,32,6.10
2010,09,22,04,33,6.10
2010,09,22,04,34,6.10
2010,09,22,04,35,6.10
2010,09,22,04,36,6.10
2010,09,22,04,37,6.10
2010,09,22,04,38,6.10
2010,09,22,04,39,6.10
2010,09,22,04,40,6.10
2010,09,22,04,41,6.10
2010,09,22,04,42,6.00
2010,09,22,04,43,6.00
2010,09,22,04,44,6.00
2010,09,22,04,45,6.00
2010,09,22,04,46,6.00
2010,09,22,04,47,6.00
2010,09,22,04,48,6.00
2010,09,22,04,49,6.10
2010,09,22,04,50,6.10
2010,09,22,04,51,6.10
2010,09,22,04,52,6.00
2010,09,22,04,53,6.00
2010,09,22,04,54,6.00
2010,09,22,04,55,6.00
2010,09,22,04,56,6.00
2010,09,22,04,57,6.00
2010,09,22,04,58,6.00
2010,09,22,04,59,6.00
2010,09,22,05,00,6.00
2010,09,22,05,01,6.00
2010,09,22,05,02,6.00
2010,09,22,05,03,6.00
2010,09,22,05,04,6.00
2010,09,22,05,05,6.00
2010,09,22,05,06,6.00
2010,09,22,05,07,6.00
2010,09,22,05,08,6.00
2010,09,22,05,09,6.00
2010,09,22,05,10,6.00
2010,09,22,05,11,6.00
2010,09,22,05,12,6.00
2010,09,22,05,13,6.00
2010,09,22,05,14,6.00
2010,09,22,05,15,5.90
2010,09,22,05,16,5.90
2010,09,22,05,17,5.90
2010,09,22,05,18,5.90
2010,09,22,05,19,5.90
2010,09,22,05,20,5.90
2010,09,22,05,21,5.90
2010,09,22,05,22,5.90
2010,09,22,05,23,5.90
2010,09,22,05,24,5.90
2010,09,22,05,25,5.90
2010,09,22,05,26,5.90
2010,09,22,05,27,5.90
2010,09,22,05,28,5.90
2010,09,22,05,29,5.90
2010,09,22,05,30,5.90
2010,09,22,05,31,5.90
2010,09,22,05,32,5.90
2010,09,22,05,33,5.90
2010,09,22,05,34,5.90
2010,09,22,05,35,5.90
2010,09,22,05,36,5.90
2010,09,22,05,37,5.90
2010,09,22,05,38,5.90
2010,09,22,05,39,5.90
2010,09,22,05,40,5.90
2010,09,22,05,41,5.90
2010,09,22,05,42,6.00
2010,09,22,05,43,6.00
2010,09,22,05,44,5.90
2010,09,22,05,45,5.90
2010,09,22,05,46,5.90
2010,09,22,05,47,5.90
2010,09,22,05,48,5.90
2010,09,22,05,49,5.90
2010,09,22,05,50,5.90
2010,09,22,05,51,5.90
2010,09,22,05,52,5.90
2010,09,22,05,53,6.00
2010,09,22,05,54,6.00
2010,09,22,05,55,6.00
2010,09,22,05,56,6.10
2010,09,22,05,57,6.10
2010,09,22,05,58,6.10
2010,09,22,05,59,6.20
2010,09,22,06,00,6.20
2010,09,22,06,01,6.30
2010,09,22,06,02,6.30
2010,09,22,06,03,6.40
2010,09,22,06,04,6.40
2010,09,22,06,05,6.50
2010,09,22,06,06,6.60
2010,09,22,06,07,6.70
2010,09,22,06,08,6.70
2010,09,22,06,09,6.70
2010,09,22,06,10,6.70
2010,09,22,06,11,6.70
2010,09,22,06,12,6.70
2010,09,22,06,13,6.80
2010,09,22,06,14,6.80
2010,09,22,06,15,6.80
2010,09,22,06,16,6.80
2010,09,22,06,17,6.80
2010,09,22,06,18,6.70
2010,09,22,06,19,6.70
2010,09,22,06,20,6.70
2010,09,22,06,21,6.60
2010,09,22,06,22,6.50
2010,09,22,06,23,6.50
2010,09,22,06,24,6.40
2010,09,22,06,25,6.40
2010,09,22,06,26,6.30
2010,09,22,06,27,6.30
2010,09,22,06,28,6.30
2010,09,22,06,29,6.20
2010,09,22,06,30,6.20
2010,09,22,06,31,6.20
2010,09,22,06,32,6.20
2010,09,22,06,33,6.10
2010,09,22,06,34,6.10
2010,09,22,06,35,6.10
2010,09,22,06,36,6.10
2010,09,22,06,37,6.10
2010,09,22,06,38,6.10
2010,09,22,06,39,6.10
2010,09,22,06,40,6.10
2010,09,22,06,41,6.10
2010,09,22,06,42,6.10
2010,09,22,06,43,6.10
2010,09,22,06,44,6.20
2010,09,22,06,45,6.20
2010,09,22,06,46,6.20
2010,09,22,06,47,6.30
2010,09,22,06,48,6.30
2010,09,22,06,49,6.30
2010,09,22,06,50,6.30
2010,09,22,06,51,6.40
2010,09,22,06,52,6.40
2010,09,22,06,53,6.40
2010,09,22,06,54,6.30
2010,09,22,06,55,6.30
2010,09,22,06,56,6.30
2010,09,22,06,57,6.20
2010,09,22,06,58,6.20
2010,09,22,06,59,6.20
2010,09,22,07,00,6.10
2010,09,22,07,01,6.10
2010,09,22,07,02,6.10
2010,09,22,07,03,6.00
2010,09,22,07,04,6.00
2010,09,22,07,05,6.00
2010,09,22,07,06,6.00
2010,09,22,07,07,6.00
2010,09,22,07,08,5.90
2010,09,22,07,09,5.90
2010,09,22,07,10,5.90
2010,09,22,07,11,5.90
2010,09,22,07,12,5.90
2010,09,22,07,13,5.90
2010,09,22,07,14,5.90
2010,09,22,07,15,5.90
2010,09,22,07,16,5.90
2010,09,22,07,17,5.90
2010,09,22,07,18,5.90
2010,09,22,07,19,5.90
2010,09,22,07,20,5.90
2010,09,22,07,21,5.90
2010,09,22,07,22,5.90
2010,09,22,07,23,5.90
2010,09,22,07,24,6.00
2010,09,22,07,25,6.00
2010,09,22,07,26,6.00
2010,09,22,07,27,6.00
2010,09,22,07,28,6.00
2010,09,22,07,29,6.00
2010,09,22,07,30,6.00
2010,09,22,07,31,6.00
2010,09,22,07,32,6.00
2010,09,22,07,33,6.00
2010,09,22,07,34,6.10
2010,09,22,07,35,6.10
2010,09,22,07,36,6.10
2010,09,22,07,37,6.10
2010,09,22,07,38,6.20
2010,09,22,07,39,6.20
2010,09,22,07,40,6.20
2010,09,22,07,41,6.20
2010,09,22,07,42,6.30
2010,09,22,07,43,6.30
2010,09,22,07,44,6.30
2010,09,22,07,45,6.40
2010,09,22,07,46,6.40
2010,09,22,07,47,6.50
2010,09,22,07,48,6.60
2010,09,22,07,49,6.60
2010,09,22,07,50,6.70
2010,09,22,07,51,6.70
2010,09,22,07,52,6.80
2010,09,22,07,53,6.80
2010,09,22,07,54,6.90
2010,09,22,07,55,6.90
2010,09,22,07,56,6.90
2010,09,22,07,57,7.00
2010,09,22,07,58,7.00
2010,09,22,07,59,7.10
2010,09,22,08,00,7.10
2010,09,22,08,01,7.20
2010,09,22,08,02,7.20
2010,09,22,08,03,7.20
2010,09,22,08,04,7.20
2010,09,22,08,05,7.30
2010,09,22,08,06,7.30
2010,09,22,08,07,7.40
2010,09,22,08,08,7.40
2010,09,22,08,09,7.40
2010,09,22,08,10,7.50
2010,09,22,08,11,7.50
2010,09,22,08,12,7.60
2010,09,22,08,13,7.70
2010,09,22,08,14,7.70
2010,09,22,08,15,7.80
2010,09,22,08,16,7.80
2010,09,22,08,17,7.90
2010,09,22,08,18,7.90
2010,09,22,08,19,8.00
2010,09,22,08,20,8.00
2010,09,22,08,21,8.10
2010,09,22,08,22,8.20
2010,09,22,08,23,8.20
2010,09,22,08,24,8.20
2010,09,22,08,25,8.30
2010,09,22,08,26,8.30
2010,09,22,08,27,8.40
2010,09,22,08,28,8.40
2010,09,22,08,29,8.50
2010,09,22,08,30,8.50
2010,09,22,08,31,8.60
2010,09,22,08,32,8.60
2010,09,22,08,33,8.70
2010,09,22,08,34,8.70
2010,09,22,08,35,8.80
2010,09,22,08,36,8.80
2010,09,22,08,37,8.90
2010,09,22,08,38,8.90
2010,09,22,08,39,9.00
2010,09,22,08,40,9.10
2010,09,22,08,41,9.10
2010,09,22,08,42,9.10
2010,09,22,08,43,9.20
2010,09,22,08,44,9.20
2010,09,22,08,45,9.30
2010,09,22,08,46,9.30
2010,09,22,08,47,9.40
2010,09,22,08,48,9.50
2010,09,22,08,49,9.50
2010,09,22,08,50,9.60
2010,09,22,08,51,9.60
2010,09,22,08,52,9.70
2010,09,22,08,53,9.80
2010,09,22,08,54,9.80
2010,09,22,08,55,9.90
2010,09,22,08,56,9.90
2010,09,22,08,57,10.00
2010,09,22,08,58,10.10
2010,09,22,08,59,10.10
2010,09,22,09,00,10.20
2010,09,22,09,01,10.20
2010,09,22,09,02,10.30
2010,09,22,09,03,10.30
2010,09,22,09,04,10.40
2010,09,22,09,05,10.40
2010,09,22,09,06,10.40
2010,09,22,09,07,10.50
2010,09,22,09,08,10.50
2010,09,22,09,09,10.60
2010,09,22,09,10,10.60
2010,09,22,09,11,10.60
2010,09,22,09,12,10.70
2010,09,22,09,13,10.70
2010,09,22,09,14,10.80
2010,09,22,09,15,10.80
2010,09,22,09,16,10.80
2010,09,22,09,17,10.90
2010,09,22,09,18,10.90
2010,09,22,09,19,10.90
2010,09,22,09,20,10.90
2010,09,22,09,21,10.90
2010,09,22,09,22,11.00
2010,09,22,09,23,11.00
2010,09,22,09,24,11.00
2010,09,22,09,25,11.10
2010,09,22,09,26,11.10
2010,09,22,09,27,11.10
2010,09,22,09,28,11.20
2010,09,22,09,29,11.20
2010,09,22,09,30,11.20
2010,09,22,09,31,11.30
2010,09,22,09,32,11.30
2010,09,22,09,33,11.30
2010,09,22,09,34,11.30
2010,09,22,09,35,11.30
2010,09,22,09,36,11.30
2010,09,22,09,37,11.40
2010,09,22,09,38,11.40
2010,09,22,09,39,11.40
2010,09,22,09,40,11.50
2010,09,22,09,41,11.60
2010,09,22,09,42,11.60
2010,09,22,09,43,11.70
2010,09,22,09,44,11.70
2010,09,22,09,45,11.80
2010,09,22,09,46,11.80
2010,09,22,09,47,11.90
2010,09,22,09,48,11.90
2010,09,22,09,49,11.90
2010,09,22,09,50,12.00
2010,09,22,09,51,12.00
2010,09,22,09,52,12.00
2010,09,22,09,53,12.10
2010,09,22,09,54,12.00
2010,09,22,09,55,12.00
2010,09,22,09,56,12.00
2010,09,22,09,57,12.00
2010,09,22,09,58,12.00
2010,09,22,09,59,12.00
2010,09,22,10,00,12.10
2010,09,22,10,01,12.10
2010,09,22,10,02,12.10
2010,09,22,10,03,12.10
2010,09,22,10,04,12.10
2010,09,22,10,05,12.10
2010,09,22,10,06,12.20
2010,09,22,10,07,12.20
2010,09,22,10,08,12.20
2010,09,22,10,09,12.30
2010,09,22,10,10,12.40
2010,09,22,10,11,12.40
2010,09,22,10,12,12.50
2010,09,22,10,13,12.50
2010,09,22,10,14,12.60
2010,09,22,10,15,12.60
2010,09,22,10,16,12.60
2010,09,22,10,17,12.60
2010,09,22,10,18,12.60
2010,09,22,10,19,12.60
2010,09,22,10,20,12.60
2010,09,22,10,21,12.60
2010,09,22,10,22,12.60
2010,09,22,10,23,12.70
2010,09,22,10,24,12.70
2010,09,22,10,25,12.80
2010,09,22,10,26,12.90
2010,09,22,10,27,12.90
2010,09,22,10,28,12.90
2010,09,22,10,29,12.90
2010,09,22,10,30,13.00
2010,09,22,10,31,13.00
2010,09,22,10,32,13.00
2010,09,22,10,33,13.00
2010,09,22,10,34,13.00
2010,09,22,10,35,13.00
2010,09,22,10,36,13.00
2010,09,22,10,37,13.00
2010,09,22,10,38,13.10
2010,09,22,10,39,13.10
2010,09,22,10,40,13.10
2010,09,22,10,41,13.10
2010,09,22,10,42,13.10
2010,09,22,10,43,13.10
2010,09,22,10,44,13.20
2010,09,22,10,45,13.30
2010,09,22,10,46,13.30
2010,09,22,10,47,13.30
2010,09,22,10,48,13.40
2010,09,22,10,49,13.50
2010,09,22,10,50,13.50
2010,09,22,10,51,13.60
2010,09,22,10,52,13.60
2010,09,22,10,53,13.60
2010,09,22,10,54,13.60
2010,09,22,10,55,13.60
2010,09,22,10,56,13.60
2010,09,22,10,57,13.50
2010,09,22,10,58,13.50
2010,09,22,10,59,13.50
2010,09,22,11,00,13.50
2010,09,22,11,01,13.60
2010,09,22,11,02,13.60
2010,09,22,11,03,13.70
2010,09,22,11,04,13.70
2010,09,22,11,05,13.70
2010,09,22,11,06,13.70
2010,09,22,11,07,13.70
2010,09,22,11,08,13.70
2010,09,22,11,09,13.70
2010,09,22,11,10,13.80
2010,09,22,11,11,13.80
2010,09,22,11,12,13.90
2010,09,22,11,13,13.90
2010,09,22,11,14,13.90
2010,09,22,11,15,13.90
2010,09,22,11,16,13.90
2010,09,22,11,17,13.90
2010,09,22,11,18,13.90
2010,09,22,11,19,13.90
2010,09,22,11,20,14.00
2010,09,22,11,21,14.10
2010,09,22,11,22,14.10
2010,09,22,11,23,14.20
2010,09,22,11,24,14.20
2010,09,22,11,25,14.30
2010,09,22,11,26,14.30
2010,09,22,11,27,14.40
2010,09,22,11,28,14.40
2010,09,22,11,29,14.50
2010,09,22,11,30,14.60
2010,09,22,11,31,14.60
2010,09,22,11,32,14.60
2010,09,22,11,33,14.60
2010,09,22,11,34,14.60
2010,09,22,11,35,14.60
2010,09,22,11,36,14.60
2010,09,22,11,37,14.60
2010,09,22,11,38,14.70
2010,09,22,11,39,14.70
2010,09,22,11,40,14.80
2010,09,22,11,41,14.80
2010,09,22,11,42,14.80
2010,09,22,11,43,14.90
2010,09,22,11,44,15.00
2010,09,22,11,45,15.00
2010,09,22,11,46,15.00
2010,09,22,11,47,15.00
2010,09,22,11,48,15.00
2010,09,22,11,49,15.00
2010,09,22,11,50,15.00
2010,09,22,11,51,15.00
2010,09,22,11,52,15.00
2010,09,22,11,53,15.00
2010,09,22,11,54,15.10
2010,09,22,11,55,15.10
2010,09,22,11,56,15.20
2010,09,22,11,57,15.20
2010,09,22,11,58,15.20
2010,09,22,11,59,15.20
2010,09,22,12,00,15.30
2010,09,22,12,01,15.30
2010,09,22,12,02,15.30
2010,09,22,12,03,15.30
2010,09,22,12,04,15.30
2010,09,22,12,05,15.30
2010,09,22,12,06,15.30
2010,09,22,12,07,15.30
2010,09,22,12,08,15.30
2010,09,22,12,09,15.20
2010,09,22,12,10,15.20
2010,09,22,12,11,15.20
2010,09,22,12,12,15.20
2010,09,22,12,13,15.20
2010,09,22,12,14,15.30
2010,09,22,12,15,15.40
2010,09,22,12,16,15.40
2010,09,22,12,17,15.50
2010,09,22,12,18,15.50
2010,09,22,12,19,15.60
2010,09,22,12,20,15.70
2010,09,22,12,21,15.70
2010,09,22,12,22,15.70
2010,09,22,12,23,15.70
2010,09,22,12,24,15.70
2010,09,22,12,25,15.80
2010,09,22,12,26,15.80
2010,09,22,12,27,15.90
2010,09,22,12,28,16.00
2010,09,22,12,29,16.00
2010,09,22,12,30,16.10
2010,09,22,12,31,16.00
2010,09,22,12,32,16.00
2010,09,22,12,33,15.90
2010,09,22,12,34,15.90
2010,09,22,12,35,15.80
2010,09,22,12,36,15.80
2010,09,22,12,37,15.70
2010,09,22,12,38,15.80
2010,09,22,12,39,15.90
2010,09,22,12,40,16.00
2010,09,22,12,41,16.10
2010,09,22,12,42,16.20
2010,09,22,12,43,16.30
2010,09,22,12,44,16.30
2010,09,22,12,45,16.30
2010,09,22,12,46,16.30
2010,09,22,12,47,16.30
2010,09,22,12,48,16.30
2010,09,22,12,49,16.30
2010,09,22,12,50,16.20
2010,09,22,12,51,16.20
2010,09,22,12,52,16.20
2010,09,22,12,53,16.20
2010,09,22,12,54,16.30
2010,09,22,12,55,16.30
2010,09,22,12,56,16.30
2010,09,22,12,57,16.40
2010,09,22,12,58,16.40
2010,09,22,12,59,16.40
2010,09,22,13,00,16.50
2010,09,22,13,01,16.40
2010,09,22,13,02,16.40
2010,09,22,13,03,16.50
2010,09,22,13,04,16.60
2010,09,22,13,05,16.80
2010,09,22,13,06,16.90
2010,09,22,13,07,17.00
2010,09,22,13,08,17.10
2010,09,22,13,09,17.10
2010,09,22,13,10,17.20
2010,09,22,13,11,17.30
2010,09,22,13,12,17.40
2010,09,22,13,13,17.40
2010,09,22,13,14,17.50
2010,09,22,13,15,17.50
2010,09,22,13,16,17.60
2010,09,22,13,17,17.60
2010,09,22,13,18,17.70
2010,09,22,13,19,17.70
2010,09,22,13,20,17.70
2010,09,22,13,21,17.70
2010,09,22,13,22,17.70
2010,09,22,13,23,17.60
2010,09,22,13,24,17.60
2010,09,22,13,25,17.70
2010,09,22,13,26,17.80
2010,09,22,13,27,17.80
2010,09,22,13,28,17.80
2010,09,22,13,29,17.70
2010,09,22,13,30,17.60
2010,09,22,13,31,17.60
2010,09,22,13,32,17.60
2010,09,22,13,33,17.60
2010,09,22,13,34,17.70
2010,09,22,13,35,17.70
2010,09,22,13,36,17.70
2010,09,22,13,37,17.70
2010,09,22,13,38,17.70
2010,09,22,13,39,17.60
2010,09,22,13,40,17.60
2010,09,22,13,41,17.60
2010,09,22,13,42,17.60
2010,09,22,13,43,17.60
2010,09,22,13,44,17.60
2010,09,22,13,45,17.60
2010,09,22,13,46,17.70
2010,09,22,13,47,17.70
2010,09,22,13,48,17.70
2010,09,22,13,49,17.80
2010,09,22,13,50,17.80
2010,09,22,13,51,17.80
2010,09,22,13,52,17.90
2010,09,22,13,53,17.90
2010,09,22,13,54,18.00
2010,09,22,13,55,18.00
2010,09,22,13,56,18.10
2010,09,22,13,57,18.10
2010,09,22,13,58,18.20
2010,09,22,13,59,18.20
2010,09,22,14,00,18.30
2010,09,22,14,01,18.30
2010,09,22,14,02,18.30
2010,09,22,14,03,18.30
2010,09,22,14,04,18.20
2010,09,22,14,05,18.20
2010,09,22,14,06,18.30
2010,09,22,14,07,18.30
2010,09,22,14,08,18.30
2010,09,22,14,09,18.40
2010,09,22,14,10,18.40
2010,09,22,14,11,18.40
2010,09,22,14,12,18.40
2010,09,22,14,13,18.40
2010,09,22,14,14,18.30
2010,09,22,14,15,18.30
2010,09,22,14,16,18.20
2010,09,22,14,17,18.10
2010,09,22,14,18,17.90
2010,09,22,14,19,18.00
2010,09,22,14,20,18.00
2010,09,22,14,21,18.00
2010,09,22,14,22,18.00
2010,09,22,14,23,18.00
2010,09,22,14,24,18.00
2010,09,22,14,25,17.90
2010,09,22,14,26,17.80
2010,09,22,14,27,17.80
2010,09,22,14,28,17.70
2010,09,22,14,29,17.60
2010,09,22,14,30,17.50
2010,09,22,14,31,17.50
2010,09,22,14,32,17.40
2010,09,22,14,33,17.50
2010,09,22,14,34,17.50
2010,09,22,14,35,17.60
2010,09,22,14,36,17.50
2010,09,22,14,37,17.50
2010,09,22,14,38,17.50
2010,09,22,14,39,17.50
2010,09,22,14,40,17.60
2010,09,22,14,41,17.60
2010,09,22,14,42,17.50
2010,09,22,14,43,17.40
2010,09,22,14,44,17.40
2010,09,22,14,45,17.40
2010,09,22,14,46,17.40
2010,09,22,14,47,17.50
2010,09,22,14,48,17.50
2010,09,22,14,49,17.50
2010,09,22,14,50,17.50
2010,09,22,14,51,17.50
2010,09,22,14,52,17.50
2010,09,22,14,53,17.50
2010,09,22,14,54,17.50
2010,09,22,14,55,17.50
2010,09,22,14,56,17.40
2010,09,22,14,57,17.30
2010,09,22,14,58,17.20
2010,09,22,14,59,17.20
2010,09,22,15,00,17.20
2010,09,22,15,01,17.20
2010,09,22,15,02,17.20
2010,09,22,15,03,17.20
2010,09,22,15,04,17.20
2010,09,22,15,05,17.20
2010,09,22,15,06,17.20
2010,09,22,15,07,17.20
2010,09,22,15,08,17.20
2010,09,22,15,09,17.20
2010,09,22,15,10,17.30
2010,09,22,15,11,17.30
2010,09,22,15,12,17.30
2010,09,22,15,13,17.30
2010,09,22,15,14,17.30
2010,09,22,15,15,17.30
2010,09,22,15,16,17.30
2010,09,22,15,17,17.30
2010,09,22,15,18,17.40
2010,09,22,15,19,17.40
2010,09,22,15,20,17.40
2010,09,22,15,21,17.40
2010,09,22,15,22,17.30
2010,09,22,15,23,17.30
2010,09,22,15,24,17.30
2010,09,22,15,25,17.20
2010,09,22,15,26,17.20
2010,09,22,15,27,17.20
2010,09,22,15,28,17.30
2010,09,22,15,29,17.40
2010,09,22,15,30,17.30
2010,09,22,15,31,17.30
2010,09,22,15,32,17.10
2010,09,22,15,33,17.10
2010,09,22,15,34,17.10
2010,09,22,15,35,17.10
2010,09,22,15,36,17.20
2010,09,22,15,37,17.20
2010,09,22,15,38,17.20
2010,09,22,15,39,17.20
2010,09,22,15,40,17.30
2010,09,22,15,41,17.30
2010,09,22,15,42,17.30
2010,09,22,15,43,17.30
2010,09,22,15,44,17.30
2010,09,22,15,45,17.30
2010,09,22,15,46,17.30
2010,09,22,15,47,17.20
2010,09,22,15,48,17.20
2010,09,22,15,49,17.20
2010,09,22,15,50,17.20
2010,09,22,15,51,17.20
2010,09,22,15,52,17.20
2010,09,22,15,53,17.20
2010,09,22,15,54,17.10
2010,09,22,15,55,17.00
2010,09,22,15,56,16.90
2010,09,22,15,57,16.90
2010,09,22,15,58,16.80
2010,09,22,15,59,16.70
2010,09,22,16,00,16.60
2010,09,22,16,01,16.60
2010,09,22,16,02,16.60
2010,09,22,16,03,16.60
2010,09,22,16,04,16.60
2010,09,22,16,05,16.50
2010,09,22,16,06,16.50
2010,09,22,16,07,16.40
2010,09,22,16,08,16.40
2010,09,22,16,09,16.40
2010,09,22,16,10,16.50
2010,09,22,16,11,16.40
2010,09,22,16,12,16.40
2010,09,22,16,13,16.40
2010,09,22,16,14,16.30
2010,09,22,16,15,16.30
2010,09,22,16,16,16.30
2010,09,22,16,17,16.30
2010,09,22,16,18,16.30
2010,09,22,16,19,16.20
2010,09,22,16,20,16.20
2010,09,22,16,21,16.10
2010,09,22,16,22,16.00
2010,09,22,16,23,16.00
2010,09,22,16,24,15.90
2010,09,22,16,25,15.90
2010,09,22,16,26,15.90
2010,09,22,16,27,15.90
2010,09,22,16,28,15.90
2010,09,22,16,29,15.90
2010,09,22,16,30,15.80
2010,09,22,16,31,15.80
2010,09,22,16,32,15.80
2010,09,22,16,33,15.80
2010,09,22,16,34,15.80
2010,09,22,16,35,15.80
2010,09,22,16,36,15.80
2010,09,22,16,37,15.80
2010,09,22,16,38,15.80
2010,09,22,16,39,15.80
2010,09,22,16,40,15.80
2010,09,22,16,41,15.80
2010,09,22,16,42,15.80
2010,09,22,16,43,15.80
2010,09,22,16,44,15.80
2010,09,22,16,45,15.80
2010,09,22,16,46,15.80
2010,09,22,16,47,15.80
2010,09,22,16,48,15.80
2010,09,22,16,49,15.80
2010,09,22,16,50,15.80
2010,09,22,16,51,15.80
2010,09,22,16,52,15.80
2010,09,22,16,53,15.70
2010,09,22,16,54,15.70
2010,09,22,16,55,15.60
2010,09,22,16,56,15.60
2010,09,22,16,57,15.50
2010,09,22,16,58,15.40
2010,09,22,16,59,15.40
2010,09,22,17,00,15.40
2010,09,22,17,01,15.40
2010,09,22,17,02,15.40
2010,09,22,17,03,15.40
2010,09,22,17,04,15.40
2010,09,22,17,05,15.30
2010,09,22,17,06,15.30
2010,09,22,17,07,15.30
2010,09,22,17,08,15.30
2010,09,22,17,09,15.30
2010,09,22,17,10,15.20
2010,09,22,17,11,15.20
2010,09,22,17,12,15.10
2010,09,22,17,13,15.10
2010,09,22,17,14,15.10
2010,09,22,17,15,15.10
2010,09,22,17,16,15.10
2010,09,22,17,17,15.10
2010,09,22,17,18,15.10
2010,09,22,17,19,15.20
2010,09,22,17,20,15.10
2010,09,22,17,21,15.10
2010,09,22,17,22,15.10
2010,09,22,17,23,15.20
2010,09,22,17,24,15.20
2010,09,22,17,25,15.20
2010,09,22,17,26,15.20
2010,09,22,17,27,15.20
2010,09,22,17,28,15.10
2010,09,22,17,29,15.10
2010,09,22,17,30,15.20
2010,09,22,17,31,15.20
2010,09,22,17,32,15.10
2010,09,22,17,33,15.10
2010,09,22,17,34,15.10
2010,09,22,17,35,15.00
2010,09,22,17,36,15.00
2010,09,22,17,37,15.00
2010,09,22,17,38,15.00
2010,09,22,17,39,15.00
2010,09,22,17,40,15.10
2010,09,22,17,41,15.10
2010,09,22,17,42,15.10